DateTimeUTC,F1_A11,F1_S11,BsB_S11,BsG_S11,BsR_S11,BbsB_S11,BbsG_S11,BbsR_S11,BaB_A11,BaG_A11,BaR_A11,Tu_S11,T_S11,Uu_S11,U_S11,P_S11,T1_A11
2021-06-19T00:00:00Z,00000200,20000000,,,,,,,-000.03,0000.21,0000.22,18.2,25.4,01.6,01.0,0671.5,31.1
2021-06-19T00:01:00Z,00000200,20000000,,,,,,,0000.02,0000.12,-000.29,18.2,25.4,01.6,01.0,0671.5,31.1
2021-06-19T00:02:00Z,00000200,20000000,,,,,,,-000.49,-000.82,-000.26,18.2,25.4,01.6,01.0,0671.5,31.1
2021-06-19T00:03:00Z,00000200,60000000,,,,,,,0000.27,0000.35,0000.22,18.2,25.4,01.6,01.0,0671.5,31.1
2021-06-19T00:04:00Z,00000200,41000000,0000.67,0000.79,0000.20,-000.07,-000.12,0000.39,0000.29,0000.30,0000.15,18.5,25.3,01.3,00.9,0672.4,31.1
2021-06-19T00:05:00Z,00000200,01000000,0000.68,0000.79,0000.14,0000.41,0000.08,0000.04,0000.26,0000.42,0000.25,18.5,25.2,01.3,00.9,0672.5,31.1
2021-06-19T00:06:00Z,00000200,01000000,0000.73,0000.96,0000.37,0000.05,-000.02,-000.17,0000.51,0000.13,0000.26,18.4,25.2,01.3,00.9,0672.5,31.1
2021-06-19T00:07:00Z,00000200,01000000,0001.37,0000.77,0000.10,0000.55,0000.26,0000.02,-000.17,-000.10,0000.02,18.4,25.1,01.4,00.9,0672.6,31.1
2021-06-19T00:08:00Z,00000200,01000000,0001.22,0000.51,0000.32,0000.25,0000.39,0000.42,0000.32,0000.20,0000.14,18.4,25.1,01.4,00.9,0672.6,31.1
2021-06-19T00:09:00Z,00000200,01000000,0000.90,0000.63,0000.13,-000.08,-000.20,-000.08,0000.45,0000.37,0000.23,18.3,25.1,01.4,00.9,0672.5,31.1
2021-06-19T00:10:00Z,00000200,01000000,0000.71,0000.36,0000.17,0000.30,0000.13,0000.21,-000.16,0000.08,0000.00,18.3,25.0,01.4,00.9,0672.6,31.1
2021-06-19T00:11:00Z,00000200,01000000,0000.92,0000.77,0000.18,0000.31,0000.06,-000.05,0000.54,0000.43,0000.12,18.3,25.0,01.4,00.9,0672.6,31.1
2021-06-19T00:12:00Z,00000200,01000000,0001.04,0000.71,0000.15,0000.06,0000.21,0000.21,0000.28,0000.29,0000.27,18.2,25.0,01.5,01.0,0672.5,31.1
2021-06-19T00:13:00Z,00000200,01000000,0000.74,0000.55,0000.26,0000.42,0000.16,0000.21,-000.03,-000.13,0000.15,18.2,25.0,01.4,01.0,0672.6,31.1
2021-06-19T00:14:00Z,00000200,01000000,0000.89,0000.75,0000.19,0000.03,0000.34,0000.08,0000.52,0000.33,0000.28,18.2,25.0,01.5,01.0,0672.6,31.1
2021-06-19T00:15:00Z,00000200,01000000,0000.83,0000.72,0000.42,-000.25,0000.03,0000.15,0000.05,-000.04,0000.05,18.3,25.0,01.4,00.9,0672.6,31.1
2021-06-19T00:16:00Z,00000200,01000000,0000.34,0000.56,0000.18,0000.50,-000.03,0000.10,0000.44,0000.44,0000.51,18.4,25.1,01.4,00.9,0672.6,31.1
2021-06-19T00:17:00Z,00000200,01000000,0000.34,0000.39,0000.11,-000.08,-000.07,0000.10,-000.01,0000.38,-000.14,18.5,25.1,01.5,01.0,0672.6,31.1
2021-06-19T00:18:00Z,00000200,01000000,0001.25,0000.47,0000.49,0000.39,0000.17,0000.36,0000.42,-000.15,0000.06,18.5,25.2,01.5,01.0,0672.6,31.1
2021-06-19T00:19:00Z,00000200,01000000,0000.19,0000.18,0000.22,-000.17,-000.01,0000.24,-000.02,0000.52,0000.26,18.5,25.2,01.5,01.0,0672.6,31.1
2021-06-19T00:20:00Z,00000200,01000000,0000.83,0000.24,0000.20,0000.61,0000.08,0000.08,0000.31,-000.27,-000.15,18.5,25.1,01.5,01.0,0672.6,31.1
2021-06-19T00:21:00Z,00000200,01000000,0000.04,0000.59,0000.27,0000.23,0000.02,0000.03,-000.20,0000.26,0000.06,18.5,25.1,01.4,00.9,0672.6,31.1
2021-06-19T00:22:00Z,00000200,01000000,0000.29,0000.24,-000.00,0000.44,0000.14,0000.16,-000.18,0000.50,0000.00,18.4,25.1,01.4,00.9,0672.5,31.1
2021-06-19T00:23:00Z,00000200,01000000,0001.11,0000.52,0000.23,0000.11,0000.12,-000.05,0000.70,-000.28,0000.04,18.4,25.1,01.4,01.0,0672.6,31.1
2021-06-19T00:24:00Z,00000200,01010000,0000.41,0000.44,0000.17,0000.28,-000.20,-000.13,-000.44,-000.10,-000.14,18.4,25.0,01.3,00.9,0672.6,31.1
2021-06-19T00:25:00Z,00000200,01000000,0000.56,0000.29,0000.01,0000.11,0000.22,-000.02,0000.19,0000.13,0000.07,18.3,25.0,01.2,00.8,0672.5,31.1
2021-06-19T00:26:00Z,00000200,01000000,0001.02,0000.42,0000.14,0000.55,-000.06,0000.09,0000.16,0000.04,0000.49,18.3,25.0,01.2,00.8,0672.5,31.1
2021-06-19T00:27:00Z,00000200,01000000,0000.77,0000.44,0000.24,0000.37,-000.29,0000.27,-000.06,0000.25,0000.11,18.3,25.0,01.1,00.8,0672.5,31.1
2021-06-19T00:28:00Z,00000200,01000000,0000.44,0000.46,-000.03,-000.16,0000.08,-000.01,-000.11,-000.20,-000.13,18.2,25.0,01.1,00.7,0672.6,31.1
2021-06-19T00:29:00Z,00000200,01000000,0000.45,0000.27,0000.19,0000.21,-000.11,0000.19,0000.21,0000.16,0000.10,18.3,24.9,01.0,00.7,0672.6,31.1
2021-06-19T00:30:00Z,00000200,01000000,0000.70,0000.48,0000.10,0000.15,0000.04,0000.08,-000.10,-000.29,-000.13,18.3,25.0,01.0,00.6,0672.6,31.1
2021-06-19T00:31:00Z,00000200,01000000,0000.85,0000.40,0000.33,0000.18,0000.15,0000.05,-000.04,0000.48,0000.01,18.4,25.0,01.0,00.6,0672.6,31.1
2021-06-19T00:32:00Z,00000200,01000000,0000.37,0000.25,0000.29,0000.18,0000.03,0000.41,-000.03,0000.08,0000.65,18.5,25.1,00.8,00.6,0672.6,31.1
2021-06-19T00:33:00Z,00000200,01000000,0001.37,0000.47,0000.11,-000.05,0000.12,0000.01,-000.11,-000.61,-000.45,18.5,25.1,00.7,00.5,0672.6,31.1
2021-06-19T00:34:00Z,00000200,01000000,0000.76,0000.47,-000.12,0000.46,0000.19,-000.23,0000.28,0000.00,0000.13,18.5,25.1,00.6,00.4,0672.6,31.1
2021-06-19T00:35:00Z,00000200,01000000,0000.85,0000.67,-000.00,0000.22,-000.01,-000.04,0000.01,0000.05,-000.16,18.4,25.0,00.7,00.5,0672.6,31.1
2021-06-19T00:36:00Z,00000200,01000000,0000.43,0000.54,-000.12,-000.38,-000.10,-000.31,0000.01,-000.11,0000.04,18.4,25.0,00.6,00.4,0672.5,31.1
2021-06-19T00:37:00Z,00000200,01000000,0001.51,0000.23,-000.05,0000.34,0000.31,0000.27,-000.26,0000.21,-000.12,18.3,25.0,00.6,00.4,0672.5,31.1
2021-06-19T00:38:00Z,00000200,01000000,0000.08,0000.26,-000.05,0000.09,-000.01,0000.22,-000.05,-000.50,-000.19,18.3,25.0,00.5,00.3,0672.5,31.1
2021-06-19T00:39:00Z,00000200,01000000,0000.88,0000.19,-000.04,-000.09,-000.03,-000.05,-000.23,0000.14,0000.17,18.2,24.9,00.3,00.2,0672.6,31.1
2021-06-19T00:40:00Z,00000200,01000000,0000.36,0000.25,0000.02,0000.61,0000.04,0000.19,-000.17,0000.16,0000.06,18.2,24.9,00.3,00.2,0672.5,31.1
2021-06-19T00:41:00Z,00000200,01000000,0000.11,0000.24,-000.02,0000.19,-000.03,-000.01,-000.06,-000.38,-000.10,18.1,24.9,00.3,00.2,0672.5,31.0
2021-06-19T00:42:00Z,00000200,01000000,0000.69,0000.14,-000.03,0000.11,0000.32,-000.03,-000.27,-000.12,-000.33,18.1,24.8,00.3,00.2,0672.5,31.1
2021-06-19T00:43:00Z,00000200,01000000,0000.54,0000.30,0000.24,0000.31,-000.11,0000.41,0000.04,-000.20,-000.09,18.1,24.8,00.2,00.1,0672.6,31.1
2021-06-19T00:44:00Z,00000200,01000000,-000.37,0000.49,0000.08,0000.44,0000.09,-000.01,0000.00,0000.17,0000.40,18.1,24.8,00.2,00.1,0672.6,31.1
2021-06-19T00:45:00Z,00000200,01000000,0000.08,0000.19,0000.05,0000.75,-000.11,-000.17,-000.29,-000.33,-000.19,18.2,24.9,00.2,00.1,0672.6,31.1
2021-06-19T00:46:00Z,00000200,01000000,-000.06,0000.30,0000.12,0000.13,0000.20,-000.03,-000.18,0000.13,0000.14,18.2,24.9,00.1,00.1,0672.6,31.1
2021-06-19T00:47:00Z,00000200,01000000,0000.31,0000.20,0000.22,-000.39,0000.05,0000.19,0000.27,0000.24,0000.14,18.3,25.0,00.1,00.0,0672.6,31.1
2021-06-19T00:48:00Z,00000200,01000000,-000.50,0000.28,0000.28,0000.08,0000.24,-000.06,-000.28,-000.22,-000.23,18.3,25.0,00.1,00.1,0672.6,31.1
2021-06-19T00:49:00Z,00000200,01000000,-000.24,-000.02,-000.06,0000.00,0000.15,0000.13,-000.14,-000.00,-000.60,18.4,25.0,00.1,00.1,0672.6,31.1
2021-06-19T00:50:00Z,00000200,01000000,-000.12,0000.30,0000.26,-000.28,-000.03,0000.11,0000.29,-000.38,0000.23,18.4,25.0,00.0,00.0,0672.6,31.1
2021-06-19T00:51:00Z,00000200,01000000,0000.52,0000.03,0000.14,-000.07,-000.08,0000.11,-000.53,0000.50,0000.29,18.4,25.0,00.1,00.0,0672.6,31.1
2021-06-19T00:52:00Z,00000200,01000000,0000.31,-000.10,0000.10,-000.17,0000.12,-000.10,0000.48,-000.40,0000.25,18.3,25.0,00.1,00.0,0672.6,31.1
2021-06-19T00:53:00Z,00000200,01000000,0000.12,0000.34,-000.16,0000.29,-000.07,-000.17,-000.01,0000.12,-000.22,18.3,25.0,00.1,00.1,0672.6,31.1
2021-06-19T00:54:00Z,00000200,01000000,-000.04,0000.47,0000.11,-000.17,-000.11,0000.10,0000.21,0000.11,0000.27,18.2,24.9,00.1,00.0,0672.6,31.1
2021-06-19T00:55:00Z,00000200,01000000,0000.22,0000.26,0000.22,0000.15,-000.19,0000.06,0000.09,0000.21,0000.11,18.2,24.9,00.0,00.0,0672.6,31.0
2021-06-19T00:56:00Z,00000200,01000000,0000.43,0000.13,0000.18,0000.25,0000.02,0000.15,0000.15,-000.20,-000.23,18.1,24.9,00.1,00.1,0672.6,31.1
2021-06-19T00:57:00Z,00000200,41000000,,,,,,,0001.62,0001.82,0001.01,18.1,24.9,,00.0,0672.5,31.0
2021-06-19T00:58:00Z,00000200,61000000,,,,,,,-001.09,-001.04,-000.53,17.8,25.0,00.0,00.0,0671.6,31.0
2021-06-19T00:59:00Z,00000200,21000000,,,,,,,-000.20,-000.34,-000.14,17.8,25.1,,00.0,0671.6,31.1
